CZ-6A DEB, 64637

Orbit data source: Space-Track

CZ-6A DEB, 64637 is space debris in LEO originally from a launch on Tue, 06 Aug 2024 UTC launched from the Taiyaun Space Center, China (TSC). Debris objects in space refer to the collection of defunct objects orbiting the Earth. Examples of debris include non-operational satellites, rocket bodies, and fragments generated from explosions, collisions, or faulty payload assembly.

Loading next visibility...
Identifier
64637, 2024-140AEB
Orbit
LEO
Country
Flag of CNCN / PRC
Related business
Manufacturer
SAST
Mission
Spacecraft
Bus & Motor
Unknown
Mass
Unknown
Launch date (UTC)
2024-08-06 (2 years ago)
Launch vehicle
Unknown
Launch site
Taiyaun Space Center, China (TSC)
Object type
Payload
Rocket body
Debris
Shape & HBR
Unknown shape, 0.1 m
Radar Cross Section
Small (<0.1 m²)

Expand to show TLE details & history
Last TLE update: 17 hours ago

TLE from 17 hours ago
0 CZ-6A DEB
1 64637U 24140AEB 26171.24616625  .00003850  00000-0  12500-2 0  9992
2 64637  89.0085 273.4469 0014974 132.8635 227.3826 14.38674178 91847
Epoch: 2026-06-20T05:54Z
TLE epoch observation values (Epoch: 2026-06-20T05:54:28.763Z)
Latitude
0.00001°
Longitude
-83.63649°
Altitude
773.213 km
Speed
7.464 km/s
True Right ascension
18h 13m 47s
True Declination
0° 00' 00"
Sunlit
Object was in full shadow at epoch
Visualization orbit readout
Latitude
Unknown
Longitude
Unknown
Altitude
Unknown
Speed
Unknown
Apparent Right ascension
Unknown
Apparent Declination
Unknown
Sunlit
N/A
Visualization observer readout
Local Sidereal Time
10:18:30
Azimuth
Unknown
Elevation
Unknown
Doppler factor
Unknown
Orbital elements
Apogee altitude
770.495 km
Perigee altitude
749.118 km
Semi-major axis
7,137.944 km
Eccentricity
0.0015
Inclination
89.0085°
RAAN
273.4469°
Arg. of periapsis
132.8635°
True anomaly
227.25649°
Mean anomaly
227.3826°
Eccentric anomaly
227.31953°
Mean motion
3.59901 °/min
Orbital period
100.03 mins
BSTAR
0.00125
Loading maneuver chart data...
Computing Atmospheric mass density...
Loading historical data...
Loading historical data...
Loading historical data...
Loading historical data...
Loading historical data...
Loading historical data...
Loading historical data...

Documentation

Showing up to 5 results
|